Location: Newark
(54.6072°N, 2.8847°W)
Time: 06:24:20
(UTC+00:00)

N. Korean satellite - Visible Passes

Search period start: 18 October 2019 00:00
Search period end: 28 October 2019 00:00
Orbit: 455 x 508 km, 97.2° (Epoch: 16 October)

Date Brightness Start Highest point End Pass type
(mag) Time Alt. Az. Time Alt. Az. Time Alt. Az.
18 Oct 9.0 05:37:50 10° NNE 05:41:00 28° E 05:44:11 10° SSE visible
18 Oct 9.1 17:53:38 10° SSW 17:56:34 26° W 17:59:33 10° NW visible
19 Oct 10.0 05:13:06 10° NE 05:15:30 17° E 05:17:55 10° SE visible
20 Oct 10.6 18:39:35 10° W 18:39:46 10° W 18:39:57 10° W visible
21 Oct 8.0 05:55:06 10° NNE 05:58:34 43° E 06:02:04 10° S visible
21 Oct 9.8 18:11:45 10° SW 18:14:11 18° W 18:16:37 10° NW visible
22 Oct 9.3 05:30:06 10° NE 05:33:08 24° E 05:36:11 10° SSE visible
22 Oct 8.7 17:45:34 10° SSW 17:48:40 31° W 17:51:50 10° NNW visible
23 Oct 10.1 05:05:31 10° NE 05:07:36 15° E 05:09:42 10° ESE visible
24 Oct 7.1 06:12:28 10° NNE 06:16:06 67° ESE 06:19:45 10° S visible
24 Oct 10.2 18:30:21 10° WSW 18:31:49 12° W 18:33:18 10° WNW visible
25 Oct 8.4 05:47:17 10° NNE 05:50:42 36° E 05:54:08 10° SSE visible
25 Oct 9.5 18:03:31 10° SW 18:06:14 21° W 18:09:00 10° NW visible
26 Oct 9.5 05:22:22 10° NE 05:25:13 21° E 05:28:06 10° SE visible
26 Oct 8.3 17:37:29 10° SSW 17:40:45 37° W 17:44:04 10° NNW visible
27 Oct 10.3 04:58:01 10° ENE 04:59:40 12° E 05:01:18 10° ESE visible
